LAN5365 SCEL-SLLP

Flight info

Callsign LAN5365
Flight time N/A
Altitude 24000
Route DILOK7B DILOK Q814 PABOS/N0434F340 UT276 ENTOP/N0380F240 Q815 LOA/N0442F340 UL309 EMPEX/N0444F350 UL309 IROBO
Aircraft A320/M-SDE3FGHIRWY/LB1

Departure

Time 2026-05-07 11:42
Airport Comodoro Arturo Merino Benítez International Airport (SCEL)

Arrival

Time N/A
Airport El Alto International Airport (SLLP)
Time Latitude Longitude Altitude Speed Heading
2026-05-07 11:28 -33.39602 -70.79453 1565 ft 0 kts 176°
2026-05-07 11:32 -33.39587 -70.79454 1564 ft 4 kts 179°
2026-05-07 11:32 -33.39560 -70.79453 1564 ft 4 kts 186°
2026-05-07 11:33 -33.39534 -70.79448 1564 ft 4 kts 201°
2026-05-07 11:33 -33.39513 -70.79432 1564 ft 4 kts 246°
2026-05-07 11:33 -33.39510 -70.79419 1564 ft 1 kts 267°
2026-05-07 11:33 -33.39510 -70.79418 1564 ft 0 kts 267°
2026-05-07 11:36 -33.39511 -70.79434 1564 ft 4 kts 267°
2026-05-07 11:36 -33.39513 -70.79490 1564 ft 9 kts 267°
2026-05-07 11:36 -33.39517 -70.79586 1564 ft 14 kts 267°
2026-05-07 11:36 -33.39522 -70.79717 1564 ft 18 kts 267°
2026-05-07 11:37 -33.39529 -70.79878 1565 ft 20 kts 267°
2026-05-07 11:37 -33.39527 -70.80003 1565 ft 10 kts 277°
2026-05-07 11:37 -33.39484 -70.80045 1566 ft 8 kts 354°
2026-05-07 11:37 -33.39411 -70.80050 1566 ft 13 kts 357°
2026-05-07 11:38 -33.39305 -70.80055 1566 ft 18 kts 358°
2026-05-07 11:38 -33.39168 -70.80063 1566 ft 22 kts 356°
2026-05-07 11:38 -33.39008 -70.80073 1567 ft 24 kts 357°
2026-05-07 11:38 -33.38842 -70.80081 1567 ft 24 kts 358°
2026-05-07 11:39 -33.38668 -70.80091 1567 ft 26 kts 357°
2026-05-07 11:39 -33.38475 -70.80101 1567 ft 29 kts 358°
2026-05-07 11:39 -33.38261 -70.80114 1566 ft 32 kts 357°
2026-05-07 11:39 -33.38040 -70.80125 1566 ft 30 kts 358°
2026-05-07 11:40 -33.37829 -70.80136 1566 ft 31 kts 358°
2026-05-07 11:40 -33.37616 -70.80147 1566 ft 31 kts 357°
2026-05-07 11:40 -33.37403 -70.80157 1567 ft 31 kts 358°
2026-05-07 11:40 -33.37262 -70.80166 1567 ft 29 kts 357°
2026-05-07 11:41 -33.37135 -70.80191 1567 ft 14 kts 323°
2026-05-07 11:41 -33.37102 -70.80271 1570 ft 8 kts 272°
2026-05-07 11:41 -33.37113 -70.80326 1574 ft 9 kts 245°
2026-05-07 11:41 -33.37209 -70.80375 1573 ft 26 kts 177°
2026-05-07 11:42 -33.37590 -70.80353 1573 ft 87 kts 177°
2026-05-07 11:42 -33.38398 -70.80309 1573 ft 143 kts 177°
2026-05-07 11:42 -33.39517 -70.80249 1784 ft 167 kts 177°
2026-05-07 11:42 -33.40709 -70.80181 2259 ft 180 kts 176°
2026-05-07 11:43 -33.42036 -70.80099 2533 ft 200 kts 177°
2026-05-07 11:43 -33.43491 -70.80011 2863 ft 220 kts 177°
2026-05-07 11:43 -33.45124 -70.79912 3093 ft 248 kts 176°
2026-05-07 11:43 -33.46891 -70.79800 3759 ft 258 kts 176°
2026-05-07 11:44 -33.48699 -70.79849 4570 ft 263 kts 192°
2026-05-07 11:44 -33.50369 -70.80765 5327 ft 269 kts 219°
2026-05-07 11:44 -33.51581 -70.82466 6102 ft 272 kts 243°
2026-05-07 11:44 -33.52110 -70.84636 6868 ft 275 kts 268°
2026-05-07 11:45 -33.51829 -70.86897 7603 ft 277 kts 292°
2026-05-07 11:45 -33.51017 -70.89005 8368 ft 280 kts 294°
2026-05-07 11:45 -33.50174 -70.91126 9124 ft 284 kts 293°
2026-05-07 11:45 -33.49325 -70.93275 9878 ft 287 kts 292°
2026-05-07 11:46 -33.48384 -70.95441 10304 ft 305 kts 304°
2026-05-07 11:46 -33.46691 -70.97113 10488 ft 333 kts 333°
2026-05-07 11:46 -33.44394 -70.97907 10751 ft 354 kts 351°
2026-05-07 11:46 -33.41905 -70.97991 11313 ft 362 kts
2026-05-07 11:47 -33.39371 -70.97729 11928 ft 368 kts
2026-05-07 11:47 -33.36804 -70.97511 12565 ft 373 kts
2026-05-07 11:47 -33.34195 -70.97311 13184 ft 378 kts
2026-05-07 11:47 -33.31557 -70.97106 13767 ft 383 kts
2026-05-07 11:48 -33.28932 -70.96716 14335 ft 388 kts 10°
2026-05-07 11:48 -33.26234 -70.96070 14870 ft 392 kts 11°
2026-05-07 11:48 -33.23581 -70.95411 15364 ft 397 kts 11°
2026-05-07 11:48 -33.20868 -70.94724 15905 ft 401 kts 11°
2026-05-07 11:49 -33.18123 -70.94027 16422 ft 406 kts 11°
2026-05-07 11:49 -33.15345 -70.93326 16963 ft 410 kts 11°
2026-05-07 11:49 -33.12540 -70.92623 17473 ft 414 kts 10°
2026-05-07 11:49 -33.09703 -70.91918 17954 ft 419 kts 10°
2026-05-07 11:50 -33.06832 -70.91206 18467 ft 424 kts 10°
2026-05-07 11:50 -33.03927 -70.90485 18882 ft 429 kts
2026-05-07 11:50 -33.00979 -70.89752 19220 ft 436 kts 10°
2026-05-07 11:50 -32.97982 -70.89007 19567 ft 443 kts
2026-05-07 11:51 -32.94939 -70.88252 19882 ft 451 kts
2026-05-07 11:51 -32.91845 -70.87485 20291 ft 457 kts
2026-05-07 11:51 -32.88711 -70.86706 20641 ft 464 kts
2026-05-07 11:51 -32.85523 -70.85916 20969 ft 471 kts 10°
2026-05-07 11:52 -32.82288 -70.85116 21328 ft 478 kts
2026-05-07 11:52 -32.79006 -70.84307 21651 ft 485 kts 10°
2026-05-07 11:52 -32.75675 -70.83486 21958 ft 493 kts 10°
2026-05-07 11:52 -32.72295 -70.82656 22269 ft 500 kts 10°
2026-05-07 11:53 -32.68864 -70.81816 22633 ft 506 kts
2026-05-07 11:53 -32.65395 -70.80963 22958 ft 513 kts 10°
2026-05-07 11:53 -32.61881 -70.80094 23203 ft 520 kts 10°
2026-05-07 11:53 -32.58318 -70.79212 23508 ft 525 kts 10°
2026-05-07 11:54 -32.54719 -70.78322 23759 ft 532 kts 10°
2026-05-07 11:54 -32.51073 -70.77422 23970 ft 539 kts 10°
2026-05-07 11:54 -32.47389 -70.76518 24251 ft 543 kts 10°
2026-05-07 11:54 -32.43683 -70.75610 24595 ft 545 kts 10°
2026-05-07 11:55 -32.39962 -70.74699 24904 ft 547 kts 11°
2026-05-07 11:55 -32.36222 -70.73784 25202 ft 550 kts 11°
2026-05-07 11:55 -32.32470 -70.72868 25543 ft 552 kts 11°
2026-05-07 11:55 -32.28699 -70.71947 25889 ft 554 kts 11°
2026-05-07 11:56 -32.24921 -70.71021 26232 ft 555 kts 11°
2026-05-07 11:56 -32.21133 -70.70092 26494 ft 557 kts 11°
2026-05-07 11:56 -32.17326 -70.69161 26823 ft 560 kts 11°
2026-05-07 11:56 -32.13505 -70.68229 27119 ft 562 kts 11°
2026-05-07 11:57 -32.09669 -70.67297 27416 ft 564 kts 11°
2026-05-07 11:57 -32.05817 -70.66365 27700 ft 566 kts 11°
2026-05-07 11:57 -32.01951 -70.65433 27993 ft 568 kts 12°
2026-05-07 11:57 -31.98071 -70.64496 28245 ft 570 kts 12°
2026-05-07 11:58 -31.94171 -70.63613 28437 ft 572 kts
2026-05-07 11:58 -31.90214 -70.63187 28570 ft 572 kts 360°
2026-05-07 11:58 -31.86233 -70.63016 28879 ft 572 kts 360°
2026-05-07 11:58 -31.82256 -70.62847 29170 ft 573 kts 360°
2026-05-07 11:59 -31.78259 -70.62679 29391 ft 575 kts
2026-05-07 11:59 -31.74255 -70.62509 29645 ft 577 kts
2026-05-07 11:59 -31.70235 -70.62338 29892 ft 579 kts
2026-05-07 11:59 -31.66209 -70.62163 30115 ft 580 kts
2026-05-07 12:00 -31.62178 -70.61987 30371 ft 579 kts
2026-05-07 12:00 -31.58157 -70.61809 30686 ft 578 kts
2026-05-07 12:00 -31.54145 -70.61631 30965 ft 576 kts
2026-05-07 12:00 -31.50139 -70.61458 31228 ft 576 kts
2026-05-07 12:01 -31.46140 -70.61287 31452 ft 574 kts
2026-05-07 12:01 -31.42150 -70.61117 31723 ft 574 kts
2026-05-07 12:01 -31.38154 -70.60947 31900 ft 573 kts
2026-05-07 12:01 -31.34179 -70.60703 32203 ft 573 kts
2026-05-07 12:02 -31.30241 -70.59995 32530 ft 571 kts 12°
2026-05-07 12:02 -31.26407 -70.59082 32801 ft 570 kts 11°
2026-05-07 12:02 -31.22519 -70.58158 33062 ft 570 kts 12°
2026-05-07 12:02 -31.18634 -70.57242 33307 ft 569 kts 11°
2026-05-07 12:03 -31.14752 -70.56335 33574 ft 568 kts 11°
2026-05-07 12:03 -31.10876 -70.55434 33790 ft 567 kts 11°
2026-05-07 12:03 -31.07017 -70.54536 34104 ft 564 kts 11°
2026-05-07 12:03 -31.03169 -70.53639 34297 ft 562 kts 10°
2026-05-07 12:04 -30.99357 -70.52748 34249 ft 557 kts 10°
2026-05-07 12:04 -30.91772 -70.50968 34258 ft 555 kts 10°
2026-05-07 12:05 -30.84207 -70.49198 34249 ft 554 kts 10°
2026-05-07 12:05 -30.76676 -70.47443 34237 ft 550 kts
2026-05-07 12:06 -30.69181 -70.45708 34260 ft 549 kts
2026-05-07 12:06 -30.61691 -70.43977 34256 ft 549 kts
2026-05-07 12:07 -30.54201 -70.42240 34225 ft 548 kts 10°
2026-05-07 12:07 -30.46718 -70.40511 34271 ft 548 kts 10°
2026-05-07 12:08 -30.39254 -70.38786 34257 ft 546 kts 10°
2026-05-07 12:08 -30.31795 -70.37064 34257 ft 547 kts 10°
2026-05-07 12:09 -30.24338 -70.35350 34213 ft 546 kts
2026-05-07 12:09 -30.16892 -70.33642 34254 ft 546 kts
2026-05-07 12:10 -30.09436 -70.31938 34252 ft 546 kts
2026-05-07 12:10 -30.01980 -70.30230 34258 ft 546 kts
2026-05-07 12:11 -29.94550 -70.28520 34249 ft 544 kts
2026-05-07 12:11 -29.87127 -70.26821 34279 ft 544 kts
2026-05-07 12:12 -29.79716 -70.25135 34252 ft 542 kts
2026-05-07 12:12 -29.72314 -70.23453 34278 ft 542 kts
2026-05-07 12:13 -29.64930 -70.21775 34251 ft 540 kts
2026-05-07 12:13 -29.57551 -70.20107 34297 ft 541 kts
2026-05-07 12:14 -29.50173 -70.18441 34240 ft 539 kts
2026-05-07 12:14 -29.42859 -70.16782 34219 ft 539 kts
2026-05-07 12:15 -29.35492 -70.15114 34248 ft 540 kts
2026-05-07 12:15 -29.28110 -70.13451 34255 ft 540 kts
2026-05-07 12:16 -29.20732 -70.11783 34255 ft 541 kts
2026-05-07 12:16 -29.13350 -70.10124 34214 ft 541 kts
2026-05-07 12:17 -29.05975 -70.08471 34220 ft 540 kts
2026-05-07 12:17 -28.98603 -70.06821 34222 ft 540 kts
2026-05-07 12:18 -28.91229 -70.05162 34227 ft 540 kts
2026-05-07 12:18 -28.83856 -70.03510 34221 ft 541 kts
2026-05-07 12:19 -28.76456 -70.01851 34224 ft 542 kts
2026-05-07 12:19 -28.69057 -70.00200 34227 ft 542 kts
2026-05-07 12:20 -28.61653 -69.98560 34225 ft 542 kts
2026-05-07 12:20 -28.54247 -69.96915 34200 ft 542 kts
2026-05-07 12:21 -28.46846 -69.95300 34217 ft 541 kts
2026-05-07 12:21 -28.39484 -69.93889 34210 ft 539 kts
2026-05-07 12:22 -28.32074 -69.92561 34237 ft 539 kts
2026-05-07 12:22 -28.24665 -69.91197 34205 ft 538 kts
2026-05-07 12:23 -28.17281 -69.89785 34206 ft 538 kts
2026-05-07 12:23 -28.09861 -69.88364 34217 ft 538 kts
2026-05-07 12:24 -28.02528 -69.86992 34197 ft 537 kts
2026-05-07 12:24 -27.95186 -69.85617 34180 ft 529 kts
2026-05-07 12:25 -27.87998 -69.84260 34176 ft 521 kts
2026-05-07 12:25 -27.80851 -69.82919 34152 ft 520 kts
2026-05-07 12:26 -27.73716 -69.81589 34164 ft 520 kts
2026-05-07 12:26 -27.66554 -69.80261 34152 ft 523 kts
2026-05-07 12:27 -27.59359 -69.78922 34159 ft 524 kts
2026-05-07 12:27 -27.52162 -69.77571 34155 ft 525 kts
2026-05-07 12:28 -27.44957 -69.76223 34152 ft 525 kts
2026-05-07 12:28 -27.38969 -69.75111 34149 ft 524 kts
2026-05-07 12:29 -27.31779 -69.73767 34155 ft 523 kts
2026-05-07 12:29 -27.24600 -69.72436 34158 ft 523 kts
2026-05-07 12:30 -27.17428 -69.71111 34159 ft 522 kts
2026-05-07 12:30 -27.10265 -69.69775 34154 ft 521 kts
2026-05-07 12:31 -27.03117 -69.68460 34169 ft 520 kts
2026-05-07 12:31 -26.95993 -69.67144 34171 ft 518 kts
2026-05-07 12:32 -26.88890 -69.65828 34210 ft 517 kts
2026-05-07 12:32 -26.81796 -69.64522 34209 ft 517 kts
2026-05-07 12:33 -26.77096 -69.63654 34207 ft 517 kts
2026-05-07 12:33 -26.64119 -69.61267 34200 ft 516 kts
2026-05-07 12:34 -26.57029 -69.59963 34193 ft 516 kts
2026-05-07 12:34 -26.49956 -69.58665 34188 ft 514 kts
2026-05-07 12:35 -26.42923 -69.57376 34181 ft 511 kts
2026-05-07 12:35 -26.35905 -69.56092 34192 ft 511 kts
2026-05-07 12:36 -26.28887 -69.54803 34181 ft 510 kts
2026-05-07 12:36 -26.21918 -69.53535 34172 ft 500 kts
2026-05-07 12:37 -26.15110 -69.52281 34197 ft 493 kts
2026-05-07 12:37 -26.08359 -69.51058 34187 ft 491 kts
2026-05-07 12:38 -26.01612 -69.49849 34188 ft 491 kts
2026-05-07 12:38 -25.94868 -69.48626 34152 ft 490 kts
2026-05-07 12:39 -25.88156 -69.47401 34206 ft 487 kts
2026-05-07 12:39 -25.81479 -69.46185 34209 ft 485 kts
2026-05-07 12:40 -25.74824 -69.44979 34206 ft 484 kts
2026-05-07 12:40 -25.68181 -69.43782 34198 ft 483 kts
2026-05-07 12:41 -25.61558 -69.42588 34187 ft 481 kts
2026-05-07 12:41 -25.54956 -69.41393 34192 ft 480 kts
2026-05-07 12:42 -25.48382 -69.40201 34194 ft 478 kts
2026-05-07 12:42 -25.41813 -69.39023 34234 ft 478 kts
2026-05-07 12:43 -25.35253 -69.37849 34190 ft 477 kts
2026-05-07 12:43 -25.28743 -69.36681 34212 ft 477 kts
2026-05-07 12:44 -25.22201 -69.35501 34217 ft 476 kts
2026-05-07 12:44 -25.15664 -69.34323 34218 ft 476 kts
2026-05-07 12:45 -25.09135 -69.33153 34209 ft 475 kts
2026-05-07 12:45 -25.02609 -69.31991 34185 ft 475 kts
2026-05-07 12:46 -24.96049 -69.30826 34178 ft 474 kts
2026-05-07 12:46 -24.89575 -69.29673 34185 ft 474 kts
2026-05-07 12:47 -24.83064 -69.28507 34186 ft 474 kts
2026-05-07 12:47 -24.76559 -69.27340 34141 ft 474 kts
2026-05-07 12:48 -24.70055 -69.26188 34158 ft 473 kts
2026-05-07 12:48 -24.63565 -69.25037 34180 ft 472 kts
2026-05-07 12:49 -24.57079 -69.23884 34183 ft 472 kts
2026-05-07 12:49 -24.50597 -69.22730 34169 ft 472 kts
2026-05-07 12:50 -24.44121 -69.21586 34133 ft 470 kts 359°
2026-05-07 12:50 -24.37662 -69.20442 34140 ft 470 kts 359°
2026-05-07 12:51 -24.31208 -69.19297 34162 ft 469 kts 359°
2026-05-07 12:51 -24.24770 -69.18158 34154 ft 468 kts 358°
2026-05-07 12:52 -24.18347 -69.17025 34152 ft 467 kts 358°
2026-05-07 12:52 -24.11939 -69.15898 34110 ft 467 kts 357°
2026-05-07 12:53 -24.05529 -69.14772 34122 ft 466 kts 357°
2026-05-07 12:53 -23.99126 -69.13653 34118 ft 466 kts 357°
2026-05-07 12:54 -23.92721 -69.12526 34145 ft 466 kts 357°
2026-05-07 12:54 -23.86323 -69.11396 34135 ft 466 kts 357°
2026-05-07 12:55 -23.79925 -69.10274 34136 ft 466 kts 357°
2026-05-07 12:55 -23.73565 -69.09162 34131 ft 466 kts 357°
2026-05-07 12:56 -23.67164 -69.08042 34135 ft 466 kts 357°
2026-05-07 12:56 -23.60758 -69.06922 34136 ft 466 kts 357°
2026-05-07 12:57 -23.54356 -69.05804 34100 ft 466 kts 357°
2026-05-07 12:57 -23.47954 -69.04685 34111 ft 466 kts 357°
2026-05-07 12:58 -23.41554 -69.03568 34116 ft 466 kts 357°
2026-05-07 12:58 -23.35158 -69.02452 34126 ft 466 kts 357°
2026-05-07 12:59 -23.28751 -69.01338 34127 ft 466 kts 357°
2026-05-07 12:59 -23.22352 -69.00218 34103 ft 466 kts 357°
2026-05-07 13:00 -23.15954 -68.99081 34128 ft 466 kts 357°
2026-05-07 13:00 -23.09555 -68.97942 34138 ft 466 kts 357°
2026-05-07 13:01 -23.03145 -68.96814 34145 ft 466 kts 357°
2026-05-07 13:01 -22.96739 -68.95685 34151 ft 466 kts 357°
2026-05-07 13:02 -22.90377 -68.94574 34110 ft 466 kts 357°
2026-05-07 13:02 -22.83968 -68.93459 34138 ft 467 kts 357°
2026-05-07 13:03 -22.77547 -68.92336 34214 ft 467 kts 357°
2026-05-07 13:03 -22.71131 -68.91214 34294 ft 467 kts 357°
2026-05-07 13:04 -22.64707 -68.90088 34357 ft 468 kts 358°
2026-05-07 13:04 -22.58281 -68.88966 34391 ft 468 kts 358°
2026-05-07 13:05 -22.51854 -68.87852 34403 ft 468 kts 358°
2026-05-07 13:05 -22.48640 -68.87318 34131 ft 466 kts 356°
2026-05-07 13:05 -22.45433 -68.86889 34134 ft 463 kts 355°
2026-05-07 13:06 -22.39043 -68.86258 34143 ft 460 kts 353°
2026-05-07 13:06 -22.32662 -68.85692 34170 ft 460 kts 353°
2026-05-07 13:07 -22.26281 -68.85043 34161 ft 461 kts 354°
2026-05-07 13:07 -22.19906 -68.84341 34166 ft 460 kts 355°
2026-05-07 13:08 -22.13538 -68.83645 34182 ft 460 kts 354°
2026-05-07 13:08 -22.07169 -68.82971 34181 ft 460 kts 354°
2026-05-07 13:09 -22.00804 -68.82300 34189 ft 460 kts 354°
2026-05-07 13:09 -21.94437 -68.81624 34165 ft 459 kts 355°
2026-05-07 13:10 -21.88082 -68.80953 34196 ft 459 kts 355°
2026-05-07 13:10 -21.81731 -68.80286 34202 ft 458 kts 355°
2026-05-07 13:11 -21.75385 -68.79616 34217 ft 458 kts 355°
2026-05-07 13:11 -21.69089 -68.78950 34199 ft 458 kts 355°
2026-05-07 13:12 -21.62756 -68.78278 34218 ft 457 kts 356°
2026-05-07 13:12 -21.56440 -68.77611 34230 ft 456 kts 356°
2026-05-07 13:13 -21.50136 -68.76949 34230 ft 455 kts 356°
2026-05-07 13:13 -21.43831 -68.76285 34231 ft 455 kts 356°
2026-05-07 13:14 -21.37535 -68.75620 34210 ft 454 kts 356°
2026-05-07 13:14 -21.31250 -68.74960 34220 ft 454 kts 356°
2026-05-07 13:15 -21.24968 -68.74302 34227 ft 453 kts 356°
2026-05-07 13:15 -21.18690 -68.73646 34230 ft 453 kts 356°
2026-05-07 13:16 -21.12413 -68.72983 34231 ft 453 kts 356°
2026-05-07 13:16 -21.06140 -68.72314 34205 ft 454 kts 357°
2026-05-07 13:17 -20.99863 -68.71644 34237 ft 453 kts 357°
2026-05-07 13:17 -20.94655 -68.71094 34247 ft 452 kts 357°
2026-05-07 13:18 -20.88407 -68.70435 34248 ft 451 kts 357°
2026-05-07 13:18 -20.82161 -68.69777 34251 ft 451 kts 357°
2026-05-07 13:19 -20.75925 -68.69117 34244 ft 450 kts 357°
2026-05-07 13:19 -20.69690 -68.68454 34244 ft 450 kts 357°
2026-05-07 13:20 -20.63454 -68.67793 34236 ft 450 kts 357°
2026-05-07 13:20 -20.57218 -68.67132 34240 ft 450 kts 357°
2026-05-07 13:21 -20.50981 -68.66468 34237 ft 450 kts 357°
2026-05-07 13:21 -20.44745 -68.65803 34240 ft 451 kts 358°
2026-05-07 13:22 -20.38506 -68.65118 34213 ft 450 kts 358°
2026-05-07 13:22 -20.32313 -68.64439 34220 ft 449 kts 358°
2026-05-07 13:23 -20.26049 -68.63759 34228 ft 450 kts 358°
2026-05-07 13:23 -20.19863 -68.63080 34232 ft 450 kts 358°
2026-05-07 13:24 -20.13633 -68.62391 34239 ft 450 kts 358°
2026-05-07 13:24 -20.07403 -68.61708 34230 ft 450 kts 359°
2026-05-07 13:25 -20.01183 -68.61035 34243 ft 450 kts 359°
2026-05-07 13:25 -19.94956 -68.60361 34260 ft 450 kts 359°
2026-05-07 13:26 -19.88731 -68.59682 34250 ft 450 kts 359°
2026-05-07 13:26 -19.82515 -68.59000 34235 ft 449 kts 359°
2026-05-07 13:27 -19.76304 -68.58328 34194 ft 449 kts 359°
2026-05-07 13:27 -19.70071 -68.57657 34197 ft 450 kts 359°
2026-05-07 13:28 -19.63828 -68.56984 34183 ft 451 kts 359°
2026-05-07 13:28 -19.57583 -68.56301 34193 ft 452 kts 359°
2026-05-07 13:29 -19.51330 -68.55620 34186 ft 452 kts 359°
2026-05-07 13:29 -19.45077 -68.54942 34181 ft 452 kts 359°
2026-05-07 13:30 -19.38820 -68.54272 34177 ft 453 kts 359°
2026-05-07 13:30 -19.32549 -68.53593 34175 ft 453 kts 359°
2026-05-07 13:31 -19.26271 -68.52917 34184 ft 454 kts 359°
2026-05-07 13:31 -19.19989 -68.52240 34176 ft 454 kts 359°
2026-05-07 13:32 -19.13702 -68.51558 34160 ft 454 kts 359°
2026-05-07 13:32 -19.07407 -68.50876 34170 ft 455 kts 359°
2026-05-07 13:33 -19.01102 -68.50199 34181 ft 455 kts 359°
2026-05-07 13:33 -18.94837 -68.49527 34185 ft 456 kts 359°
2026-05-07 13:34 -18.85367 -68.48514 34199 ft 456 kts 359°
2026-05-07 13:35 -18.79050 -68.47840 34189 ft 456 kts 360°
2026-05-07 13:35 -18.72743 -68.47165 34194 ft 456 kts 360°
2026-05-07 13:36 -18.66431 -68.46479 34200 ft 456 kts
2026-05-07 13:36 -18.60122 -68.45799 34210 ft 456 kts 360°
2026-05-07 13:37 -18.53811 -68.45123 34209 ft 456 kts 360°
2026-05-07 13:37 -18.47502 -68.44451 34203 ft 456 kts
2026-05-07 13:38 -18.41191 -68.43783 34203 ft 456 kts
2026-05-07 13:38 -18.34881 -68.43113 34206 ft 456 kts
2026-05-07 13:39 -18.28578 -68.42436 34205 ft 456 kts
2026-05-07 13:39 -18.22262 -68.41764 34208 ft 456 kts
2026-05-07 13:40 -18.15950 -68.41095 34200 ft 456 kts
2026-05-07 13:40 -18.09632 -68.40423 34211 ft 456 kts
2026-05-07 13:41 -18.03317 -68.39750 34210 ft 456 kts
2026-05-07 13:41 -17.97005 -68.39071 34224 ft 456 kts
2026-05-07 13:42 -17.90682 -68.38392 34232 ft 465 kts
2026-05-07 13:42 -17.84157 -68.37690 34249 ft 471 kts
2026-05-07 13:43 -17.77673 -68.36989 34246 ft 472 kts